TimeMST,TemperatureF,Dew PointF,Humidity,Sea Level PressureIn,VisibilityMPH,Wind Direction,Wind SpeedMPH,Gust SpeedMPH,PrecipitationIn,Events,Conditions,WindDirDegrees,DateUTC
12:14 AM,21.2,15.8,80,30.08,10.0,Calm,Calm,-,N/A,,Mostly Cloudy,0,2013-02-25 07:14:00
12:53 AM,19.0,14.0,81,30.17,10.0,North,-9999.0,-,N/A,,Clear,0,2013-02-25 07:53:00
1:53 AM,17.1,14.0,88,30.19,10.0,SSE,4.6,-,N/A,,Clear,160,2013-02-25 08:53:00
2:53 AM,17.1,12.0,81,30.20,10.0,SE,9.2,-,N/A,,Partly Cloudy,130,2013-02-25 09:53:00
3:53 AM,17.1,12.9,84,30.20,10.0,Calm,Calm,-,N/A,,Overcast,0,2013-02-25 10:53:00
4:53 AM,17.1,12.9,84,30.22,10.0,ESE,4.6,-,N/A,,Mostly Cloudy,120,2013-02-25 11:53:00
5:53 AM,19.0,14.0,81,30.24,10.0,Calm,Calm,-,N/A,,Overcast,0,2013-02-25 12:53:00
6:53 AM,18.0,12.9,81,30.27,10.0,SSE,3.5,-,N/A,,Mostly Cloudy,160,2013-02-25 13:53:00
7:46 AM,21.2,14.0,74,30.18,10.0,SSE,4.6,-,N/A,,Overcast,150,2013-02-25 14:46:00
7:53 AM,21.0,14.0,74,30.25,10.0,South,4.6,-,N/A,,Overcast,170,2013-02-25 14:53:00
8:14 AM,19.4,12.2,74,30.18,10.0,South,3.5,-,N/A,,Overcast,180,2013-02-25 15:14:00
8:53 AM,23.0,14.0,68,30.25,10.0,Calm,Calm,-,N/A,,Partly Cloudy,0,2013-02-25 15:53:00
9:53 AM,26.1,12.9,58,30.23,10.0,East,3.5,-,N/A,,Clear,80,2013-02-25 16:53:00
10:53 AM,28.9,12.9,51,30.20,10.0,North,4.6,-,N/A,,Clear,10,2013-02-25 17:53:00
11:53 AM,30.0,14.0,51,30.17,10.0,North,3.5,-,N/A,,Clear,10,2013-02-25 18:53:00
12:53 PM,30.0,16.0,56,30.14,10.0,Calm,Calm,-,N/A,,Clear,0,2013-02-25 19:53:00
1:53 PM,32.0,15.1,50,30.12,10.0,NE,3.5,-,N/A,,Clear,40,2013-02-25 20:53:00
2:53 PM,33.1,17.1,52,30.09,10.0,NE,4.6,-,N/A,,Clear,40,2013-02-25 21:53:00
3:53 PM,35.1,15.1,44,30.06,10.0,Calm,Calm,-,N/A,,Clear,0,2013-02-25 22:53:00
4:53 PM,33.1,15.1,48,30.05,10.0,SE,5.8,-,N/A,,Clear,130,2013-02-25 23:53:00
5:53 PM,30.9,16.0,54,30.03,10.0,ESE,3.5,-,N/A,,Clear,110,2013-02-26 00:53:00
6:53 PM,26.1,16.0,66,30.05,10.0,SSE,5.8,-,N/A,,Clear,160,2013-02-26 01:53:00
7:53 PM,25.0,14.0,63,30.04,10.0,SE,8.1,-,N/A,,Clear,130,2013-02-26 02:53:00
8:53 PM,24.1,14.0,65,30.00,10.0,North,-9999.0,-,N/A,,Clear,0,2013-02-26 03:53:00
9:53 PM,26.1,12.0,55,29.99,10.0,SSE,3.5,-,N/A,,Clear,150,2013-02-26 04:53:00
10:53 PM,26.1,12.9,58,29.97,10.0,SE,5.8,-,N/A,,Overcast,140,2013-02-26 05:53:00
11:53 PM,23.0,14.0,68,29.98,10.0,SSE,8.1,-,N/A,,Scattered Clouds,160,2013-02-26 06:53:00